DW0487 Weather Reports


Display with metric or nautical units.
time (UTC)temp
F
wind
direction
speed
MPH
gust
MPH
rain 1hr
in
rain 24hr
in
rain mn
in
humidity
%
barometer
mb
20260504110134 71 46 7.0 11.0 0.00 0.00 0.00 41 1009.8
20260504081526 62 315 2.0 6.0 0.00 0.00 0.00 56 1011.9
20260504070105 54 72 0.0 2.0 0.00 0.00 0.00 70 1012.8
20260504044540 45 189 1.0 4.0 0.00 0.00 0.00 82 1013.4
20260504043031 45 178 0.0 2.0 0.00 0.00 0.00 82 1013.5
20260504041531 46 180 1.0 4.0 0.00 0.00 0.00 82 1013.3
20260504040025 46 170 2.0 5.0 0.00 0.00 0.00 81 1013.5
20260504034523 47 204 0.0 3.0 0.00 0.00 0.00 81 1013.7
20260504033023 47 180 0.0 0.0 0.00 0.00 0.00 80 1013.7
20260504031519 48 180 0.0 1.0 0.00 0.00 0.00 79 1013.7
20260504030027 48 194 0.0 2.0 0.00 0.00 0.00 80 1013.7
20260504024517 48 188 0.0 2.0 0.00 0.00 0.00 80 1013.8
20260504023016 49 194 0.0 1.0 0.00 0.00 0.00 79 1013.8
20260504021515 49 163 2.0 4.0 0.00 0.00 0.00 79 1013.7
20260504020018 49 167 2.0 5.0 0.00 0.00 0.00 79 1013.9
20260504014513 49 190 0.0 4.0 0.00 0.00 0.00 79 1013.8
20260504013012 49 183 0.0 2.0 0.00 0.00 0.00 78 1013.8
20260504011511 49 187 0.0 3.0 0.00 0.00 0.00 78 1013.9
20260504010009 49 218 2.0 3.0 0.00 0.00 0.00 78 1014.0
20260504004517 49 259 0.0 4.0 0.00 0.00 0.00 78 1014.1
20260504003009 49 165 0.0 3.0 0.00 0.00 0.00 78 1014.0
20260504001507 49 165 0.0 2.0 0.00 0.00 0.00 78 1014.0
20260504000006 50 79 0.0 0.0 0.00 0.00 0.00 78 1013.9
20260503234506 50 282 0.0 0.0 0.00 0.00 0.00 76 1014.0
20260503233004 50 282 0.0 2.0 0.00 0.00 0.00 76 1013.9
20260503231502 50 162 0.0 2.0 0.00 0.00 0.00 76 1013.7
20260503230100 50 260 0.0 0.0 0.00 0.00 0.00 74 1013.6
20260503224558 51 304 0.0 3.0 0.00 0.00 0.00 74 1013.4
20260503223057 51 157 0.0 2.0 0.00 0.00 0.00 73 1013.3
20260503221555 51 270 0.0 0.0 0.00 0.00 0.00 72 1013.2
20260503220053 52 311 0.0 4.0 0.00 0.00 0.00 72 1013.1
20260503214551 53 51 2.0 4.0 0.00 0.00 0.00 70 1013.1
20260503213057 54 199 0.0 0.0 0.00 0.00 0.00 67 1013.0
20260503211550 55 199 0.0 0.0 0.00 0.00 0.00 66 1012.7
20260503210101 56 199 1.0 2.0 0.00 0.00 0.00 63 1012.7
20260503204549 56 199 0.0 2.0 0.00 0.00 0.00 63 1012.5
20260503203053 57 233 0.0 0.0 0.00 0.00 0.00 61 1012.5
20260503201548 58 233 0.0 3.0 0.00 0.00 0.00 59 1012.4
20260503200050 59 213 0.0 2.0 0.00 0.00 0.00 57 1012.4
20260503194547 59 228 1.0 4.0 0.00 0.00 0.00 54 1012.4
20260503193052 60 271 0.0 0.0 0.00 0.00 0.00 53 1012.2
20260503191549 62 282 0.0 2.0 0.00 0.00 0.00 52 1012.0
20260503190047 63 36 2.0 4.0 0.00 0.00 0.00 51 1011.7
20260503184555 64 5 1.0 4.0 0.00 0.00 0.00 49 1011.5
20260503183056 65 25 3.0 5.0 0.00 0.00 0.00 45 1011.5
20260503181545 66 38 3.0 5.0 0.00 0.00 0.00 44 1011.4
20260503180045 67 26 3.0 8.0 0.00 0.00 0.00 44 1011.3
20260503174544 67 33 4.0 9.0 0.00 0.00 0.00 44 1011.1
20260503173055 68 46 4.0 9.0 0.00 0.00 0.00 44 1011.0
20260503171543 68 41 4.0 9.0 0.00 0.00 0.00 43 1010.9
20260503170144 69 57 4.0 9.0 0.00 0.00 0.00 43 1010.8
20260503160149 71 355 5.0 10.0 0.00 0.00 0.00 39 1010.5
20260503120124 78 140 4.0 9.0 0.00 0.00 0.00 18 1011.5